TimeCST,TemperatureF,Dew PointF,Humidity,Sea Level PressureIn,VisibilityMPH,Wind Direction,Wind SpeedMPH,Gust SpeedMPH,PrecipitationIn,Events,Conditions,WindDirDegrees,DateUTC
12:53 AM,-17.0,-24.0,70,30.70,10.0,NNE,5.8,-,N/A,,Clear,20,2013-01-24 06:53:00
1:53 AM,-17.0,-24.0,70,30.71,10.0,North,3.5,-,N/A,,Clear,10,2013-01-24 07:53:00
2:53 AM,-16.1,-24.0,67,30.71,10.0,Calm,Calm,-,N/A,,Clear,0,2013-01-24 08:53:00
3:53 AM,-16.1,-23.1,71,30.71,10.0,Calm,Calm,-,N/A,,Clear,0,2013-01-24 09:53:00
4:53 AM,-16.1,-22.0,74,30.71,10.0,SE,4.6,-,N/A,,Clear,130,2013-01-24 10:53:00
5:53 AM,-15.0,-22.0,71,30.70,10.0,SE,4.6,-,N/A,,Clear,130,2013-01-24 11:53:00
6:53 AM,-13.0,-20.9,68,30.71,10.0,South,4.6,-,N/A,,Clear,180,2013-01-24 12:53:00
7:53 AM,-13.0,-20.0,71,30.67,10.0,SE,8.1,-,N/A,,Partly Cloudy,140,2013-01-24 13:53:00
8:53 AM,-11.9,-20.0,67,30.64,10.0,SE,10.4,-,N/A,,Partly Cloudy,140,2013-01-24 14:53:00
9:53 AM,-9.9,-18.9,65,30.63,10.0,SE,10.4,-,N/A,,Clear,140,2013-01-24 15:53:00
10:53 AM,-9.0,-18.0,65,30.62,10.0,SSE,10.4,-,N/A,,Overcast,150,2013-01-24 16:53:00
11:53 AM,-7.1,-17.0,62,30.58,10.0,SE,11.5,-,N/A,,Overcast,130,2013-01-24 17:53:00
12:53 PM,-5.1,-16.1,59,30.53,10.0,SE,12.7,-,N/A,,Overcast,140,2013-01-24 18:53:00
1:53 PM,-4.0,-15.0,59,30.49,10.0,SSE,11.5,-,N/A,,Overcast,150,2013-01-24 19:53:00
2:53 PM,-2.9,-14.1,59,30.45,10.0,SE,13.8,-,N/A,,Overcast,140,2013-01-24 20:53:00
3:53 PM,-2.0,-13.0,60,30.40,10.0,SE,15.0,-,N/A,,Overcast,140,2013-01-24 21:53:00
4:53 PM,-0.9,-11.9,60,30.36,10.0,SSE,15.0,-,N/A,,Overcast,150,2013-01-24 22:53:00
5:53 PM,-0.9,-9.9,66,30.32,10.0,SE,15.0,-,0.00,,Overcast,140,2013-01-24 23:53:00
6:53 PM,-0.0,-9.0,66,30.25,10.0,SSE,19.6,-,N/A,,Overcast,150,2013-01-25 00:53:00
7:53 PM,1.0,-8.0,66,30.25,10.0,SSE,13.8,21.9,N/A,,Overcast,160,2013-01-25 01:53:00
8:53 PM,1.9,-7.1,66,30.23,10.0,South,11.5,-,N/A,,Overcast,170,2013-01-25 02:53:00
9:53 PM,3.0,-6.0,66,30.19,10.0,South,12.7,-,N/A,,Overcast,170,2013-01-25 03:53:00
10:53 PM,3.0,-4.0,73,30.16,6.0,South,11.5,-,0.00,Snow,Light Snow,170,2013-01-25 04:53:00
11:09 PM,3.2,-2.2,78,30.02,2.0,SSE,9.2,-,0.00,Snow,Light Snow,160,2013-01-25 05:09:00
11:23 PM,3.2,-2.2,78,30.00,5.0,South,12.7,-,0.00,,Haze,170,2013-01-25 05:23:00
11:53 PM,3.9,-2.9,73,30.12,5.0,South,13.8,-,0.00,,Haze,170,2013-01-25 05:53:00